Tracking 28794 objects as of 21-Apr-2024
HD Live streaming from Space Station
objects crossing your sky now

DRUMS

Track DRUMS now!
10-day predictions


NORAD ID: 49401
Int'l Code: 2021-102G
Perigee: 534.1 km
Apogee: 563.7 km
Inclination: 97.4 °
Period: 95.5 minutes
Semi major axis: 6919 km
RCS: Unknown
Launch date: November 9, 2021
Source: Japan (JPN)
Launch site: KAGOSHIMA SPACE CENTER UNIVERSITY OF TOKYO (KSCUT)
Your satellite tracking list
Your tracking list is empty




NASA's NSSDC Master Catalog

Two Line Element Set (TLE):
1 49401U 21102G   24112.58763474  .00011631  00000-0  75198-3 0  9993
2 49401  97.4367 161.3463 0021380  84.9099 275.4569 15.08166015134495
Source of the keplerian elements: AFSPC